Location: Newark
(52.4480°N, 1.4938°W)
Time: 05:31:11
(UTC+00:00)

UWE-3 - Visible Passes

Search period start: 26 November 2020 00:00
Search period end: 06 December 2020 00:00
Orbit: 584 x 683 km, 97.6° (Epoch: 25 November)

Date Brightness Start Highest point End Pass type
(mag) Time Alt. Az. Time Alt. Az. Time Alt. Az.
26 Nov ? 04:08:18 10° NE 04:11:46 25° E 04:13:43 18° SE visible
26 Nov ? 05:44:27 10° N 05:48:23 41° WNW 05:51:07 18° SW visible
26 Nov ? 16:46:56 10° SSW 16:50:44 27° W 16:54:27 10° NW visible
27 Nov ? 04:29:28 10° NNE 04:33:24 39° E 04:34:36 31° SE visible
27 Nov ? 06:06:11 10° N 06:09:42 27° WNW 06:12:01 17° WSW visible
27 Nov ? 17:09:23 10° SW 17:12:23 18° W 17:15:22 10° NW visible
28 Nov ? 04:50:48 10° NNE 04:54:56 63° E 04:55:40 52° SSE visible
28 Nov ? 06:28:05 10° NNW 06:30:58 18° WNW 06:33:04 13° W visible
28 Nov ? 17:32:43 10° WSW 17:34:08 11° W 17:35:32 10° WNW visible
29 Nov ? 03:37:26 10° ENE 03:39:24 13° E 03:39:25 13° E visible
29 Nov ? 05:12:15 10° NNE 05:16:25 81° WNW 05:16:49 71° SW visible
29 Nov ? 06:50:21 10° NNW 06:52:11 13° NW 06:53:59 10° W visible
30 Nov ? 03:58:00 10° NE 04:00:37 20° E 04:00:37 20° E visible
30 Nov ? 05:33:49 10° N 05:37:51 50° WNW 05:38:03 50° W visible
30 Nov ? 16:36:10 10° SSW 16:40:07 32° W 16:44:01 10° NNW visible
01 Dec ? 04:19:02 10° NNE 04:21:54 29° ENE 04:21:54 29° ENE visible
01 Dec ? 05:55:29 10° N 05:59:12 32° WNW 05:59:19 32° WNW visible
01 Dec ? 16:58:25 10° SW 17:01:46 21° W 17:05:03 10° NW visible
02 Dec ? 04:40:17 10° NNE 04:43:13 38° NE 04:43:13 38° NE visible
02 Dec ? 06:17:18 10° N 06:20:30 22° WNW 06:20:38 22° WNW visible
02 Dec ? 17:21:15 10° WSW 17:23:28 14° W 17:25:40 10° NW visible
03 Dec ? 05:01:41 10° NNE 05:04:34 44° NNE 05:04:34 44° NNE visible
03 Dec ? 06:39:21 10° NNW 06:41:44 15° WNW 06:42:00 15° WNW visible
04 Dec ? 03:47:45 10° NE 03:48:32 13° ENE 03:48:32 13° ENE visible
04 Dec ? 05:23:11 10° N 05:25:57 39° N 05:25:57 39° N visible
04 Dec ? 07:02:21 10° NW 07:02:54 10° NW 07:03:23 10° WNW visible
04 Dec ? 16:25:26 10° SSW 16:29:31 39° W 16:33:30 10° NNW visible
05 Dec ? 04:08:36 10° NE 04:09:56 17° NE 04:09:56 17° NE visible
05 Dec ? 05:44:48 10° N 05:47:21 30° NNW 05:47:21 30° NNW visible
05 Dec ? 16:47:32 10° SSW 16:51:07 25° W 16:54:39 10° NW visible
